Regional Weather Roundup
Issued by NWS

Home | Current Version | Previous Version | Text Only | Print | Product List | Glossary On
Versions: 1 2 3 4 5 6 7 8 9 10 11 12 13 14 15 16 17 18 19 20 21 22 23 24 25 26 27 28 29 30 31 32 33 34 35 36 37 38 39 40 41 42 43 44 45 46 47 48 49 50
000
ASUS42 KFFC 171203
RWRGA
WEATHER ROUNDUP FOR GEORGIA
NATIONAL WEATHER SERVICE PEACHTREE CITY GA
800 AM EDT WED SEP 17 2014

NOTE: "FAIR" INDICATES FEW OR NO CLOUDS BELOW 12,000 FEET WITH NO
SIGNIFICANT WEATHER AND/OR OBSTRUCTIONS TO VISIBILITY.

* = USE WITH CAUTION. THE STATIONS MARKED WITH AN ASTERISK MAY NOT
REPORT WEATHER SUCH AS PRECIPITATION, FOG, OR THUNDER AND ARE NOT
QUALITY CONTROLLED BY NWS.

THE REMARK "TC" DENOTES TEMPERATURE READING IN DEGREES CELSIUS.

GAZ001>058-171300-
NORTH GEORGIA

CITY           SKY/WX    TMP DP  RH WIND       PRES   REMARKS
ATLANTA        CLEAR     67  64  90 NW7       29.99R
6HR MIN TEMP:  67; 6HR MAX TEMP:  72;

ATHENS         PTCLDY    68  65  90 CALM      29.97R
6HR MIN TEMP:  68; 6HR MAX TEMP:  71;

CHAMBLEE       CLEAR     66  63  90 W5        29.99R
6HR MIN TEMP:  66; 6HR MAX TEMP:  70;

PEACHTREE CITY CLEAR     68  65  90 NW3       29.99S
6HR MIN TEMP:  67; 6HR MAX TEMP:  71;

ROME           MOCLDY    65  63  93 CALM      30.00S
6HR MIN TEMP:  64; 6HR MAX TEMP:  69;

WEST ATLANTA   CLEAR     67  63  87 CALM      29.99R
6HR MIN TEMP:  66; 6HR MAX TEMP:  72;

GAINESVILLE    CLEAR     67  65  93 CALM      30.01R
6HR MIN TEMP:  65; 6HR MAX TEMP:  70;

CARTERSVILLE   CLEAR     65  62  90 CALM      30.01R
6HR MIN TEMP:  64; 6HR MAX TEMP:  68;



CITY           SKY/WX    TMP DP  RH WIND       PRES   REMARKS
DALTON*        MOCLDY    63  63 100 N5        30.00S
LAWRENCEVILLE* PTCLDY   N/A N/A N/A CALM      29.97S
MARIETTA       PTCLDY    66  63  90 NW7       30.00R
KENNESAW*      CLEAR     64  59  82 NW6       30.01F
$$

GAZ059>098-102>109-171300-
CENTRAL GEORGIA

CITY           SKY/WX    TMP DP  RH WIND       PRES   REMARKS
AUGUSTA-BUSH   MOCLDY    68  66  93 CALM      29.95R
6HR MIN TEMP:  67; 6HR MAX TEMP:  73;

AUGUSTA-DANIEL CLOUDY    71  69  93 CALM      29.96R
6HR MIN TEMP:  70; 6HR MAX TEMP:  73;

COLUMBUS       CLEAR     72  67  84 N5        29.96R
6HR MIN TEMP:  71; 6HR MAX TEMP:  73;

MACON          CLEAR     69  69 100 CALM      29.96R
6HR MIN TEMP:  67; 6HR MAX TEMP:  70;

ROBINS AFB     CLEAR     70  69  98 N1        29.95R


CITY           SKY/WX    TMP DP  RH WIND       PRES   REMARKS
LAGRANGE*      CLEAR     72  69  92 CALM      29.99R
SYLVANIA*      CLOUDY    71  71  99 CALM      29.94S FOG
MILLEDGEVILLE* CLEAR     70  70 100 CALM      29.96R FOG
$$

GAZ099>101-110>166-171300-
SOUTH GEORGIA

CITY           SKY/WX    TMP DP  RH WIND       PRES   REMARKS
SAVANNAH       PTCLDY    71  68  90 CALM      29.93S
6HR MIN TEMP:  69; 6HR MAX TEMP:  71;

VALDOSTA       MOCLDY    70  69  97 CALM      29.94S
6HR MIN TEMP:  69; 6HR MAX TEMP:  72;

ALMA           CLEAR     70  69  97 NW5       29.94R FOG
6HR MIN TEMP:  69; 6HR MAX TEMP:  71;

ST SIMONS      PTCLDY    72  69  90 NW5       29.92R
6HR MIN TEMP:  72; 6HR MAX TEMP:  74;

FT STEWART     CLEAR     69  67  94 CALM      29.92R
ALBANY         CLEAR     71  69  93 CALM      29.97R
HUNTER AFB     CLEAR     70  70 100 NW5       29.91S
MOODY AFB      MOCLDY    70  69  95 NE2       29.95R
BRUNSWICK      PTCLDY    72  68  88 CALM      29.93S


CITY           SKY/WX    TMP DP  RH WIND       PRES   REMARKS
BAINBRIDGE*    FOG       73  72  94 CALM      29.96R VSB 1/4
MOULTRIE*      CLEAR     70  70 100 CALM      29.96R FOG
VIDALIA*       CLEAR     70  70 100 CALM      29.95R
WAYCROSS*      MOCLDY    74  74 100 CALM      29.95R
DOUGLAS*       CLEAR     72  70  94 CALM      29.96R
$$



USA.gov is the U.S. government's official web portal to all federal, state and local government web resources and services.